[[{"header":{"parameterUnit":"m.s-1","parameterCategory":1,"la1":30.2991,"la2":30.254,"lo1":-89.0895,"lo2":-89.0444,"dy":0.0017,"dx":0.0017,"nx":28,"ny":28,"refTime":"2024-10-21T03:00:00:Z","depth":0,"parameterNumber":2,"parameterNumberName":"U-component_of_WINDS"},"data":[0,0,0,0,0,0,0,0,0,0,0,0,0,0,0,0,0,0,0,0,0,0,0,0,0,0,0,0,0,0,0,0,0,0,0,0,0,0,0,0,0,0,0,0,0,0,0,0,0,0,0,0,0,0,0,0,0,0,-1.337,-1.3369,0,-1.3304,-1.3303,-1.3302,-1.3231,-1.323,-1.3229,-1.3228,-1.316,-1.3159,-1.3158,0,0,0,0,0,0,0,0,0,0,0,0,0,-1.3437,-1.3436,-1.337,-1.3369,-1.3368,-1.3304,-1.3303,-1.3302,-1.3231,-1.323,-1.3228,-1.3227,-1.316,-1.3159,-1.3158,0,0,0,0,0,0,0,0,0,0,0,0,0,-1.3393,-1.3435,-1.337,-1.3325,-1.332,-1.3304,-1.3303,-1.3302,-1.3231,-1.323,-1.3228,-1.3227,-1.3161,-1.3159,-1.3158,-1.3181,0,0,-1.3154,-1.3154,0,0,0,0,0,0,0,0,-1.3395,-1.339,-1.3333,-1.3328,-1.3323,-1.3274,-1.3301,-1.3261,-1.3232,-1.3265,-1.3228,-1.3226,-1.3199,-1.3195,-1.3185,-1.3177,-1.3175,-1.3154,-1.3153,-1.3153,-1.3152,0,0,0,0,0,0,0,-1.3398,-1.3393,-1.3344,-1.3332,-1.3326,-1.3309,-1.3301,-1.3293,-1.3241,-1.3262,-1.3257,-1.325,-1.3196,-1.3187,-1.3183,-1.3174,-1.3154,-1.3153,-1.3152,-1.3152,-1.3184,-1.3185,0,0,0,0,0,0,-1.3408,-1.3396,-1.3346,-1.3342,-1.3356,-1.3309,-1.33,-1.3291,-1.3241,-1.3232,-1.3251,-1.3247,-1.319,-1.3185,-1.3181,-1.3206,-1.3153,-1.3151,-1.3151,-1.3182,-1.3184,-1.3186,0,0,0,0,0,0,-1.341,-1.3404,-1.3348,-1.3367,-1.3359,-1.3309,-1.33,-1.3291,-1.3281,-1.3233,-1.3224,-1.3251,-1.3188,-1.3183,-1.3182,-1.3202,-1.3151,-1.315,-1.318,-1.3183,-1.3185,-1.3255,0,0,0,0,0,0,-1.3412,-1.3405,-1.3413,-1.3368,-1.3358,-1.335,-1.3301,-1.329,-1.3279,-1.3273,-1.3231,-1.3222,-1.3187,-1.3184,-1.3181,-1.32,-1.3149,-1.3178,-1.3181,-1.3184,-1.3251,-1.326,-1.3267,0,0,0,0,0,-1.3415,-1.3435,-1.3414,-1.3408,-1.3367,-1.3352,-1.3346,-1.3305,-1.3281,-1.3289,-1.3258,-1.3223,-1.3201,-1.3185,-1.318,-1.3199,-1.3177,-1.318,-1.3184,-1.3247,-1.3258,-1.3267,0,0,0,0,0,0,-1.3483,-1.3428,-1.3404,-1.341,-1.3386,-1.334,-1.3348,-1.3317,-1.33,-1.3294,-1.3244,-1.3235,-1.3241,-1.322,-1.3203,-1.322,-1.3184,-1.3187,-1.3233,-1.3243,-1.3252,-1.3257,-1.3148,0,0,0,0,0,-1.3499,-1.3491,-1.3443,-1.3453,-1.3443,-1.3398,-1.339,-1.336,-1.3333,-1.3323,-1.3292,-1.3268,-1.3255,-1.3248,-1.3233,-1.3247,-1.3238,-1.3258,-1.3267,-1.3274,-1.3277,-1.3285,-1.3294,-1.3198,-1.3198,-1.3198,0,0,-1.3531,-1.35,-1.3498,-1.3466,-1.3444,-1.3438,-1.339,-1.3384,-1.338,-1.3322,-1.332,-1.3297,-1.3267,-1.3274,-1.3276,-1.3256,-1.3302,-1.3278,-1.3284,-1.3284,-1.329,-1.3299,-1.3307,-1.32,-1.32,-1.32,0,0,-1.3587,-1.3562,-1.3569,-1.3548,-1.3516,-1.3486,-1.3488,-1.3447,-1.343,-1.3427,-1.3384,-1.3378,-1.3357,-1.3338,-1.3325,-1.3377,-1.3346,-1.3374,-1.3417,-1.3426,-1.3434,-1.344,-1.3461,-1.3468,-1.3377,-1.3378,-1.3378,0,-1.3631,-1.362,-1.3576,-1.3575,-1.3563,-1.3511,-1.3518,-1.35,-1.3465,-1.3459,-1.3438,-1.3412,-1.3387,-1.3391,-1.3404,-1.3395,-1.3397,-1.3379,-1.3436,-1.3442,-1.3448,-1.3467,-1.3474,-1.3381,-1.3381,-1.3381,-1.338,0,-1.3677,-1.367,-1.368,-1.3648,-1.3637,-1.364,-1.3598,-1.3592,-1.3564,-1.3537,-1.3537,-1.3506,-1.3486,-1.3484,-1.3456,-1.3485,-1.3474,-1.3445,-1.3408,-1.3462,-1.3479,-1.3485,-1.3387,-1.3386,-1.3384,-1.3383,0,0,-1.3773,-1.3719,-1.3723,-1.3709,-1.3671,-1.3665,-1.3667,-1.3647,-1.3644,-1.3622,-1.3623,-1.3608,-1.3582,-1.3568,-1.3538,-1.3546,-1.3592,-1.3516,-1.3515,-1.3533,-1.3623,-1.3646,-1.3655,-1.357,-1.3571,-1.3572,-1.3626,0,-1.3823,-1.3823,-1.3784,-1.3795,-1.3789,-1.3741,-1.3743,-1.372,-1.3695,-1.3688,-1.366,-1.3651,-1.3616,-1.3608,-1.3613,-1.3585,-1.3609,-1.358,-1.3572,-1.3572,-1.3582,-1.3663,-1.3687,-1.3739,-1.3633,-1.3634,-1.3634,0,-1.3882,-1.3865,-1.3875,-1.3839,-1.3835,-1.3837,-1.3817,-1.381,-1.3784,-1.3766,-1.3752,-1.3718,-1.3719,-1.3684,-1.3684,-1.3666,-1.366,-1.3646,-1.3647,-1.3645,-1.3607,-1.3666,-1.3755,-1.3764,-1.3644,-1.3643,-1.3643,0,-1.3953,-1.3932,-1.3936,-1.3926,-1.3883,-1.3886,-1.3868,-1.3841,-1.3833,-1.3816,-1.3811,-1.3794,-1.3785,-1.3774,-1.3737,-1.3715,-1.3743,-1.3704,-1.3729,-1.373,-1.3737,-1.3738,-1.3829,-1.3732,-1.3732,-1.3732,-1.3732,0,-1.4014,-1.4023,-1.3968,-1.3971,-1.398,-1.3936,-1.3946,-1.3924,-1.3901,-1.3899,-1.3856,-1.3856,-1.3807,-1.3801,-1.3773,-1.3779,-1.3775,-1.3761,-1.3754,-1.3766,-1.3768,-1.3762,-1.3758,-1.3734,-1.3733,-1.3733,-1.3733,0,-1.4095,-1.4059,-1.406,-1.4021,-1.4011,-1.402,-1.3986,-1.3987,-1.3961,-1.3959,-1.3957,-1.3915,-1.3907,-1.3869,-1.3851,-1.3832,-1.3849,-1.3833,-1.3858,-1.3853,-1.3881,-1.388,-1.3972,-1.3983,-1.3879,-1.388,-1.3881,0,-1.4137,-1.4143,-1.4104,-1.41,-1.4085,-1.4079,-1.4071,-1.4029,-1.4022,-1.3995,-1.4,-1.3988,-1.3977,-1.3966,-1.3934,-1.3921,-1.3906,-1.394,-1.3904,-1.3917,-1.3909,-1.3909,-1.3911,-1.3948,-1.3949,-1.395,-1.3951,0,-1.4216,-1.4198,-1.4188,-1.4172,-1.4164,-1.415,-1.4132,-1.4132,-1.4085,-1.4081,-1.4072,-1.4063,-1.4046,-1.4036,-1.4018,-1.4,-1.3969,-1.3962,-1.3968,-1.3981,-1.3996,-1.399,-1.388,-1.3961,-1.396,-1.3959,-1.3958,-1.3958,-1.4279,-1.4283,-1.4257,-1.4248,-1.4231,-1.4217,-1.4217,-1.4192,-1.4183,-1.4167,-1.4142,-1.4138,-1.4114,-1.4087,-1.4073,-1.4069,-1.4051,-1.4058,-1.406,-1.4063,-1.407,-1.3996,-1.4065,-1.4065,-1.4065,-1.4064,-1.4064,0,-1.4357,-1.4339,-1.4331,-1.4309,-1.4303,-1.4273,-1.4254,-1.4251,-1.4247,-1.4227,-1.4218,-1.4209,-1.4199,-1.4168,-1.4156,-1.4159,-1.4145,-1.4158,-1.4157,-1.4155,-1.4086,-1.4083,-1.417,-1.417,-1.417,-1.417,-1.417,-1.417,-1.4397,-1.4403,-1.4383,-1.438,-1.4362,-1.4357,-1.4349,-1.4336,-1.4321,-1.4313,-1.4305,-1.4285,-1.4262,-1.4248,-1.4238,-1.4229,-1.4228,-1.4246,-1.4233,-1.4169,-1.4159,-1.4149,-1.4147,-1.4245,-1.4245,-1.4302,-1.4302,-1.4303]},{"header":{"parameterUnit":"m.s-1","parameterCategory":1,"la1":30.2991,"la2":30.254,"lo1":-89.0895,"lo2":-89.0444,"dy":0.0017,"dx":0.0017,"nx":28,"ny":28,"refTime":"2024-10-21T03:00:00:Z","depth":0,"parameterNumber":3,"parameterNumberName":"V-component_of_WINDS"},"data":[0,0,0,0,0,0,0,0,0,0,0,0,0,0,0,0,0,0,0,0,0,0,0,0,0,0,0,0,0,0,0,0,0,0,0,0,0,0,0,0,0,0,0,0,0,0,0,0,0,0,0,0,0,0,0,0,0,0,0.8275,0.8275,0,0.8274,0.8274,0.8274,0.834,0.8342,0.8344,0.8346,0.8341,0.8339,0.8338,0,0,0,0,0,0,0,0,0,0,0,0,0,0.8327,0.8326,0.8275,0.8275,0.8275,0.8274,0.8274,0.8274,0.834,0.8342,0.8344,0.8346,0.8342,0.834,0.8337,0,0,0,0,0,0,0,0,0,0,0,0,0,0.8313,0.8326,0.8275,0.8307,0.831,0.8274,0.8274,0.8274,0.834,0.8342,0.8345,0.8347,0.8342,0.834,0.8337,0.8268,0,0,0.8329,0.8328,0,0,0,0,0,0,0,0,0.8314,0.8311,0.8303,0.8305,0.8308,0.831,0.8291,0.8272,0.8339,0.8328,0.8346,0.8349,0.8328,0.8327,0.8321,0.8268,0.8268,0.8329,0.8327,0.8326,0.8325,0,0,0,0,0,0,0,0.8315,0.8312,0.8274,0.8302,0.8306,0.8321,0.8322,0.8288,0.8313,0.833,0.8334,0.8334,0.833,0.8323,0.8321,0.8268,0.8329,0.8327,0.8325,0.8324,0.8155,0.8152,0,0,0,0,0,0,0.8312,0.8312,0.8274,0.8274,0.8318,0.8318,0.8319,0.8307,0.8314,0.8318,0.8331,0.8337,0.8327,0.8324,0.8322,0.8239,0.8326,0.8324,0.8322,0.8158,0.8154,0.8151,0,0,0,0,0,0,0.8313,0.8308,0.8274,0.8295,0.8291,0.8314,0.83,0.8305,0.8299,0.8316,0.832,0.832,0.8329,0.8325,0.8281,0.8239,0.8323,0.832,0.8161,0.8157,0.8153,0.8074,0,0,0,0,0,0,0.8314,0.8308,0.8283,0.8294,0.829,0.8235,0.8298,0.8304,0.8294,0.8301,0.8306,0.8309,0.833,0.8284,0.8278,0.8237,0.8318,0.8165,0.8159,0.8154,0.808,0.8067,0.8056,0,0,0,0,0,0.8316,0.8261,0.8282,0.8277,0.826,0.8232,0.823,0.8257,0.8291,0.8265,0.8276,0.8309,0.8246,0.8279,0.8273,0.823,0.8168,0.8161,0.8155,0.8085,0.807,0.8056,0,0,0,0,0,0,0.8244,0.8263,0.8286,0.8233,0.823,0.8243,0.8212,0.824,0.8227,0.8234,0.8267,0.8267,0.8216,0.822,0.8256,0.8163,0.8212,0.8204,0.8162,0.8147,0.8135,0.8134,0.8316,0,0,0,0,0,0.8222,0.8199,0.8217,0.8168,0.8166,0.8189,0.8178,0.8199,0.8197,0.8196,0.8204,0.8199,0.8178,0.8164,0.8145,0.8082,0.8082,0.805,0.8038,0.8028,0.8019,0.7982,0.7967,0.813,0.813,0.813,0,0,0.8176,0.8184,0.8167,0.8154,0.8154,0.8128,0.8187,0.8158,0.8138,0.8191,0.8149,0.8154,0.8151,0.8096,0.8072,0.8097,0.7975,0.802,0.8012,0.8008,0.7974,0.7959,0.7945,0.8125,0.8126,0.8127,0,0,0.8078,0.8083,0.8042,0.8041,0.8042,0.8057,0.8047,0.8056,0.8061,0.802,0.8058,0.8035,0.7999,0.7994,0.7987,0.7887,0.7916,0.788,0.7817,0.778,0.7768,0.7756,0.7717,0.7703,0.7873,0.7872,0.7872,0,0.802,0.7984,0.8016,0.7984,0.7975,0.8024,0.798,0.7978,0.7972,0.7964,0.7993,0.7947,0.7949,0.7892,0.7867,0.7861,0.7848,0.7878,0.7767,0.7756,0.7746,0.7709,0.7694,0.7868,0.7868,0.7869,0.7869,0,0.7911,0.7885,0.7851,0.7844,0.7833,0.7795,0.782,0.7804,0.7826,0.7838,0.7793,0.7798,0.778,0.7768,0.779,0.7713,0.7728,0.7762,0.7812,0.7725,0.7691,0.7677,0.7861,0.7863,0.7864,0.7865,0,0,0.7765,0.7778,0.7764,0.7761,0.7765,0.7744,0.7708,0.7692,0.7675,0.767,0.7638,0.7606,0.7636,0.7628,0.765,0.7618,0.7534,0.7656,0.7656,0.7629,0.7446,0.7418,0.7401,0.7555,0.7552,0.755,0.7445,0,0.7668,0.7607,0.7635,0.757,0.7544,0.759,0.7558,0.7556,0.7566,0.7544,0.7556,0.7531,0.7575,0.757,0.7541,0.755,0.7497,0.7559,0.7522,0.752,0.7517,0.7384,0.7354,0.7255,0.7432,0.743,0.7428,0,0.7545,0.7535,0.7467,0.7474,0.7464,0.7435,0.7421,0.7401,0.7398,0.7408,0.7398,0.7426,0.7389,0.7441,0.7388,0.7429,0.7416,0.7418,0.7415,0.7409,0.7466,0.7371,0.7224,0.7207,0.7408,0.7409,0.7411,0,0.7441,0.741,0.7365,0.7362,0.7369,0.7347,0.7349,0.7349,0.7337,0.7325,0.7316,0.73,0.7289,0.7275,0.7296,0.7333,0.7238,0.7293,0.7242,0.7241,0.7217,0.7217,0.7062,0.7215,0.7215,0.7215,0.7216,0,0.7327,0.7283,0.7318,0.729,0.7241,0.7274,0.7224,0.7231,0.7231,0.7203,0.7242,0.7215,0.7247,0.7222,0.7239,0.719,0.7187,0.7191,0.7195,0.7185,0.7184,0.7174,0.718,0.7211,0.7212,0.7213,0.7214,0,0.7201,0.7224,0.7177,0.7188,0.719,0.7153,0.7162,0.7135,0.7148,0.7112,0.7106,0.7126,0.7098,0.712,0.7093,0.7104,0.7038,0.7055,0.7039,0.7042,0.6988,0.6991,0.6818,0.6795,0.6966,0.6964,0.6963,0,0.7125,0.7092,0.7099,0.7084,0.7084,0.7059,0.7047,0.7077,0.7062,0.7056,0.7029,0.7006,0.6988,0.6942,0.6953,0.6932,0.6945,0.6886,0.6942,0.6932,0.6939,0.6939,0.6935,0.6873,0.6871,0.6869,0.6868,0,0.6985,0.6998,0.6979,0.6964,0.6948,0.6937,0.6929,0.6914,0.6945,0.6926,0.6899,0.6886,0.6858,0.6833,0.6816,0.6816,0.6845,0.6851,0.6837,0.6824,0.6815,0.6816,0.7004,0.6854,0.6855,0.6856,0.6857,0.6858,0.6879,0.6851,0.6852,0.6829,0.6826,0.6818,0.6792,0.6803,0.6781,0.6762,0.6781,0.6747,0.6744,0.6724,0.672,0.6693,0.6717,0.6698,0.6693,0.6686,0.6677,0.6823,0.669,0.6691,0.6691,0.6692,0.6692,0,0.6739,0.6741,0.672,0.6708,0.6689,0.6722,0.6715,0.6696,0.6666,0.6662,0.6644,0.6611,0.6586,0.6596,0.6573,0.6549,0.6562,0.6542,0.6542,0.6541,0.6659,0.6671,0.6532,0.6532,0.6532,0.6532,0.6532,0.6532,0.6663,0.6616,0.6628,0.658,0.6583,0.6551,0.6543,0.6534,0.6531,0.6493,0.6473,0.648,0.648,0.6458,0.6436,0.6439,0.6427,0.6401,0.6408,0.6517,0.6533,0.6548,0.6559,0.6399,0.6399,0.6292,0.6291,0.629]}]]